Regional Weather Roundup
Issued by NWS

Home | Current Version | Previous Version | Graphics & Text | Print | Product List | Glossary On
Versions: 1 2 3 4 5 6 7 8 9 10 11 12 13 14 15 16 17 18 19 20 21 22 23 24 25 26 27 28 29 30 31 32 33 34 35 36 37 38 39 40 41 42 43 44 45 46 47 48 49 50
777
ASUS43 KMPX 270110
RWRMN
WEATHER ROUNDUP FOR MINNESOTA
NATIONAL WEATHER SERVICE TWIN CITIES/CHANHASSEN MN
800 PM CDT WED JUL 26 2017


NOTE: "FAIR" INDICATES FEW OR NO CLOUDS BELOW 12,000 FEET WITH NO
SIGNIFICANT WEATHER AND/OR OBSTRUCTIONS TO VISIBILITY. N/A MEANS
CURRENT SKY AND/OR WEATHER CONDITIONS ARE NOT AVAILABLE.

MNZ060>063-068>070-270200-
   Twin Cities Metro

CITY           SKY/WX    TMP DP  RH WIND       PRES   REMARKS
TWIN CITIES    PTCLDY    80  60  50 N9        29.98R
ST PAUL        CLEAR     80  61  52 N10       29.98R
CRYSTAL        CLEAR     80  58  46 N8        29.97S
BLAINE         PTCLDY    81  61  50 NW9       29.99R
LAKEVILLE      CLEAR     75  63  64 NW7       29.99R
EDEN PRAIRIE   CLEAR     80  61  52 N6        29.98R
SOUTH ST PAUL  CLEAR     80  59  49 N5        29.98R
LAKE ELMO      FAIR      77  63  61 NW5       29.99S
$$
MNZ001>005-007-008-013>017-022>024-027-028-270200-
   Northwest Minnesota

CITY           SKY/WX    TMP DP  RH WIND       PRES   REMARKS
BEMIDJI        PTCLDY    75  58  54 NW9       30.05S
HALLOCK        SUNNY     77  63  61 NW5       30.06R
ROSEAU         CLEAR     75  64  69 CALM      30.04S
WARROAD        CLEAR     75  61  60 NW3       30.04R
THIEF RVR FALL PTCLDY    76  61  59 NW8       30.07R
CROOKSTON      CLEAR     75  63  64 N6        30.07R
FOSSTON        CLEAR     75  61  60 NW5       30.07R
DETROIT LAKES  CLEAR     73  61  64 NW7       30.07S
MOORHEAD       CLEAR     75  61  60 N6        30.06S
PARK RAPIDS    CLEAR     76  58  53 NW9       30.05R
MAHNOMEN       FAIR      74  61  63 N7        30.06S
$$
MNZ006-009>011-018-025>026-270200-
   North Central Minnesota

CITY           SKY/WX    TMP DP  RH WIND       PRES   REMARKS
BAUDETTE       CLEAR     75  61  61 NW3       30.02S
FLAG ISLAND    CLEAR     75  61  60 NW9       30.02R
INTL FALLS     CLEAR     74  60  61 NW5       30.01R
WASKISH        CLEAR     77  61  57 N3        30.03S
BIG FORK       PTCLDY    73  57  56 CALM      30.03R
LONGVILLE      CLEAR     75  59  57 CALM      30.04R
GRAND RAPIDS   PTCLDY    74  60  61 NW5       30.04R
CRANE LAKE     CLEAR     73  57  56 NW3       30.02R
ORR            CLEAR     73  57  56 CALM      29.99S
COOK             N/A     73  59  60 CALM      30.02R
WALKER         MOCLDY    72  60  65 N5        30.05R
$$
MNZ012-019>021-037-270200-
   Northeast Minnesota

CITY           SKY/WX    TMP DP  RH WIND       PRES   REMARKS
DULUTH         PTCLDY    75  61  61 NW6       30.00R
ELY            CLEAR     73  55  53 CALM      30.01R
HIBBING        CLEAR     73  59  61 N6        30.01R
EVELETH        CLEAR     75  48  38 N5        30.02S
DULUTH HARBOR  CLEAR     79  63  57 NW5       29.97R
TWO HARBORS    PTCLDY    75  64  69 CALM      29.96S
SILVER BAY     CLEAR     75  61  60 CALM      29.96S
GRAND MARAIS     N/A     76  60  57 CALM      29.93S
G MARAIS ARPRT CLOUDY    70  55  60 W3        30.01R
$$
MNZ029>031-032-039>041-046>048-054>057-064-270200-
   West Central Minnesota

CITY           SKY/WX    TMP DP  RH WIND       PRES   REMARKS
FERGUS FALLS   CLEAR     75  63  64 N5        30.04S
WHEATON        MOCLDY    75  63  64 N3        30.06S
MORRIS         PTCLDY    77  64  65 N5        30.04S
ALEXANDRIA     CLEAR     76  62  62 N8        30.06S
ELBOW LAKE     FAIR      76  63  62 N7        30.06S
WADENA         CLEAR     75  61  60 N7        30.05R
GLENWOOD       CLEAR     75  63  64 NW6       30.06R
APPLETON       CLEAR     79  61  53 N5        30.04R
BENSON         CLEAR     77  61  57 N6        30.05S
ORTONVILLE     CLEAR     79  63  57 MISG      30.05S
MADISON        CLEAR     81  63  54 N7        30.05S
WILLMAR        FAIR      77  64  65 NW6       30.05R
$$
MNZ033>034-036-042>043-049>051-058-059-270200-
   Central Minnesota

CITY           SKY/WX    TMP DP  RH WIND       PRES   REMARKS
ST CLOUD       CLEAR     77  64  64 N5        30.01R
SAUK CENTRE    FAIR      77  62  60 NW7       30.04S
PAYNESVILLE    CLEAR     76  62  61 NW6       30.04R
AITKIN         CLEAR     75  61  60 CALM      30.01S
PINE RIVER     CLEAR     77  61  57 N5        30.07R
BRAINERD       CLEAR     77  60  55 N7        30.03R
STAPLES        PTCLDY    75  57  53 NW5       30.04R
LONG PRAIRIE   FAIR      75  63  64 W5        30.05R
LITTLE FALLS   CLEAR     77  59  53 NW3       30.02S
LITCHFIELD     CLEAR     79  63  57 NW7       30.02S
BUFFALO        CLEAR     78  59  52 NW5       30.01S
MAPLE LAKE     PTCLDY    79  64  60 N5        30.02R
HUTCHINSON     CLEAR     78  64  62 NW5       30.02S
$$
MNZ037-044-045-052-053-270200-
   East Central Minnesota

CITY           SKY/WX    TMP DP  RH WIND       PRES   REMARKS
PRINCETON      CLEAR     79  63  57 N5        30.00S
MORA           CLEAR     75  61  60 NW5       30.02R
CAMBRIDGE      CLEAR     81  63  54 CALM      29.98S
RUSH CITY      CLEAR     76  61  60 NW3       30.00R
MOOSE LAKE     CLEAR     77  61  57 NW5       29.99R
HINCKLEY       FAIR      77  63  61 NW3       29.99S
CLOQUET        PTCLDY    75  57  53 W5        30.00S
MCGREGOR       CLEAR     77  59  53 NW5       30.02S
$$
MNZ071>073-080-081-089-090-097-098-270200-
   Southwest Minnesota

CITY           SKY/WX    TMP DP  RH WIND       PRES   REMARKS
MONTEVIDEO     CLEAR     79  63  57 N8        30.04S
GRANITE FALLS  CLEAR     79  63  57 NW6       30.05S
CANBY          CLEAR     80  60  51 CALM      30.06S
MARSHALL       CLEAR     76  64  66 N7        30.05S
REDWOOD FALLS  CLEAR     78  61  55 NW6       30.02S
OLIVIA         CLEAR     77  63  61 NW7       30.02S
PIPESTONE      CLEAR     77  63  61 NE5       30.07S
WINDOM         CLEAR     73  63  68 N7        30.04S
WORTHINGTON    CLEAR     75  62  64 N6        30.06R
JACKSON        CLEAR     73  63  68 CALM      30.04S
TRACY          CLEAR     76  66  71 N6        30.05S
SLAYTON        RAIN      75  62  64 N7        30.07S
$$
MNZ065>067-074>077-082>085-091>093-270200-
   South Central Minnesota

CITY           SKY/WX    TMP DP  RH WIND       PRES   REMARKS
MANKATO        CLEAR     77  65  66 N8        30.01R
NEW ULM        CLEAR     77  61  57 CALM      30.02R
ST JAMES       CLEAR     75  64  69 NW5       30.03S
FAIRMONT       CLEAR     76  66  71 N7        30.02R
GLENCOE        CLEAR     78  68  69 NW3       30.00S
FARIBAULT      CLEAR     75  64  69 CALM      30.00R
OWATONNA       CLEAR     75  66  73 NW6       30.00R
WASECA         CLEAR     73  64  73 N6        30.02R
ALBERT LEA     PTCLDY    79  72  78 N3        30.00R
$$
MNZ078>079-086>088-094>096-270200-
   Southeast Minnesota

CITY           SKY/WX    TMP DP  RH WIND       PRES   REMARKS
ROCHESTER      PTCLDY    75  70  84 N6        30.00R
RED WING       CLEAR     77  66  69 CALM      29.96S
STANTON        CLEAR     77  66  68 NW3       29.97S
DODGE CENTER   CLEAR     75  66  73 N5        30.00R
WINONA         PTCLDY    77  68  73 CALM      29.97R
AUSTIN         CLEAR     77  68  73 N3        29.99R
PRESTON        MOCLDY    75  69  81 N3        30.00R
$$
ABBREVIATIONS USED IN REMARKS
   TC - TEMPERATURES IN CELSIUS
  WCI - WIND CHILL INDEX
   HX - HEAT INDEX
  VSB - VISIBILITY
$$




USA.gov is the U.S. government's official web portal to all federal, state and local government web resources and services.